Location: Drignac
(45.1667°N, 2.0333°E)
Time: 16:05:02
(UTC+00:00)

SPOT 1/Viking Rocket - Pass Details

Date: 29 March 2020
Orbit: 776 x 795 km, 98.5° (Epoch: 02 June)

Event Time Altitude Azimuth Distance (km) Brightness Sun altitude
Exits shadow 20:32:10 39° 65° (ENE) 1,173 4.2 -23.3°
Drops below altitude 10° 20:36:54 10° 0° (N) 2,370 6.4 -24.0°
Sets 20:39:21 0° 353° (N) 3,306 7.4 -24.3°
